SL-8 DEB *, 3743

Orbit data source: Space-Track

SL-8 DEB *, 3743 is space debris in LEO originally from a launch on Mon, 15 Mar 1965 UTC launched from the Tyuratam Missile And Space Complex (TTMTR). Debris objects in space refer to the collection of defunct objects orbiting the Earth. Examples of debris include non-operational satellites, rocket bodies, and fragments generated from explosions, collisions, or faulty payload assembly.

Loading next visibility...
Identifier
3743, 1965-020ES
Orbit
LEO
Country
Flag of CISCIS
Related business
Manufacturer
Unknown
Mission
Spacecraft
Bus & Motor
Unknown
Mass
Unknown
Launch date (UTC)
1965-03-15 (61 years ago)
Launch vehicle
Unknown
Launch site
Tyuratam Missile And Space Complex (TTMTR)
Object type
Payload
Rocket body
Debris
Shape & HBR
Unknown shape, 0.1 m
Radar Cross Section
Medium (>0.1 m² and <1 m²)

Expand to show TLE details & history
Last TLE update: 2 days ago

TLE from 2 days ago
0 SL-8 DEB *
1 03743U 65020ES  26173.35727253 -.00000100  00000-0 -10939-3 0  9991
2 03743  56.6595 249.5975 0260054  64.1782   9.4205 12.20715223574787
Epoch: 2026-06-22T08:34Z
TLE epoch observation values (Epoch: 2026-06-22T08:34:28.346Z)
Latitude
53.59249°
Longitude
-86.98515°
Altitude
1,392.285 km
Speed
7.261 km/s
True Right ascension
20h 48m 42s
True Declination
53° 26' 29"
Sunlit
Object was in daylight at epoch
Visualization orbit readout
Latitude
Unknown
Longitude
Unknown
Altitude
Unknown
Speed
Unknown
Apparent Right ascension
Unknown
Apparent Declination
Unknown
Sunlit
N/A
Visualization observer readout
Local Sidereal Time
11:31:16
Azimuth
Unknown
Elevation
Unknown
Doppler factor
Unknown
Orbital elements
Apogee altitude
1,796.366 km
Perigee altitude
1,381.98 km
Semi-major axis
7,967.31 km
Eccentricity
0.02601
Inclination
56.6595°
RAAN
249.5975°
Arg. of periapsis
64.1782°
True anomaly
9.92439°
Mean anomaly
9.4205°
Eccentric anomaly
9.6708°
Mean motion
3.05194 °/min
Orbital period
117.96 mins
BSTAR
-0.00010939
Loading maneuver chart data...
Computing Atmospheric mass density...
Loading historical data...
Loading historical data...
Loading historical data...
Loading historical data...
Loading historical data...
Loading historical data...
Loading historical data...

Documentation

Showing up to 5 results
|